Showing default

YAOGAN-35 A, 49390

Orbit data source: Space-Track

YAOGAN-35 A, 49390 is a payload satellite owned by PLA GAD (CN) in LEO that was launched on Sat, 06 Nov 2021 UTC via a CHANG ZHENG 2D launch vehicle from the Xichang Space Center, China (XSC). Payload-class satellites include a variety of spacecraft equipped with specific instruments for various scientific and technological missions. These include communications satellites like Starlink; space stations such as the ISS; scientific satellites like the Hubble; Earth observation satellites from companies like Planet Labs, Umbra, and HawkEye 360; GPS; miniature CubeSats for education and research; and military/defense satellites.

Loading next visibility...
Identifier
49390, 2021-101A
Orbit
LEO
Country
Flag of CNCN / PRC
Related business
Manufacturer
DFH
Mission
Operational Defense Sigint
Bus & Motor
Unknown
Mass
~300 kg wet, ~300 kg dry
Launch date (UTC)
2021-11-06 (5 years ago)
Launch vehicle
CHANG ZHENG 2D
Launch site
Xichang Space Center, China (XSC)
Object type
Payload
Rocket body
Debris
Shape & HBR
Box + 2 Pan, 2.5 m
Radar Cross Section
11.063 m², Large (>1 m²)

Expand to show TLE details & history
Last TLE update: 21 hours ago

TLE from 21 hours ago
0 YAOGAN-35 A
1 49390U 21101A   26172.54872778  .00005655  00000-0  21130-3 0  9997
2 49390  34.9908 248.3339 0005531  53.2969 306.8254 15.26688944257544
Epoch: 2026-06-21T13:10Z
TLE epoch observation values (Epoch: 2026-06-21T13:10:10.080Z)
Latitude
-0.00002°
Longitude
141.04446°
Altitude
482.349 km
Speed
7.628 km/s
True Right ascension
16h 33m 20s
True Declination
0° 00' 00"
Sunlit
Object was in full shadow at epoch
Visualization orbit readout
Latitude
Unknown
Longitude
Unknown
Altitude
Unknown
Speed
Unknown
Apparent Right ascension
Unknown
Apparent Declination
Unknown
Sunlit
N/A
Visualization observer readout
Local Sidereal Time
21:33:27
Azimuth
Unknown
Elevation
Unknown
Doppler factor
Unknown
Orbital elements
Apogee altitude
492.774 km
Perigee altitude
485.177 km
Semi-major axis
6,867.112 km
Eccentricity
0.00055
Inclination
34.9908°
RAAN
248.3339°
Arg. of periapsis
53.2969°
True anomaly
306.77464°
Mean anomaly
306.8254°
Eccentric anomaly
306.80002°
Mean motion
3.81401 °/min
Orbital period
94.39 mins
BSTAR
0.0002113
Loading maneuver chart data...
Computing Atmospheric mass density...
Loading historical data...
Loading historical data...
Loading historical data...
Loading historical data...
Loading historical data...
Loading historical data...
Loading historical data...

Documentation

Showing up to 5 results
|